Location: Argonnex
(45.9500°N, 6.1333°E)
Time: 09:17:06
(UTC+00:00)

Cosmos 2266 Rocket - Pass Details

Date: 04 October 2023
Orbit: 933 x 1008 km, 82.9° (Epoch: 10 December)

Event Time Altitude Azimuth Distance (km) Brightness Sun altitude
Exits shadow 03:54:06 21° 296° (WNW) 2,111 5.3 -18.6°
Drops below altitude 10° 03:58:41 10° 342° (NNW) 2,794 6.3 -17.8°
Sets 04:02:00 0° 359° (N) 3,751 7.2 -17.3°
